| time (UTC) | temp C | wind direction | speed KPH | gust KPH | rain 1hr cm | rain 24hr cm | rain mn cm | humidity % | barometer mb |
| 20260507084014 | -17 | 129 | 0.0 | 4.8 | 0.00 | 0.00 | 0.00 | 1019.6 | |
| 20260507083510 | -17 | 154 | 3.2 | 3.2 | 0.00 | 0.00 | 0.00 | 1019.1 | |
| 20260507083007 | -17 | 268 | 0.0 | 6.4 | 0.00 | 0.00 | 0.00 | 1019.4 | |
| 20260507082503 | -17 | 55 | 1.6 | 6.4 | 0.00 | 0.00 | 0.00 | 1019.2 | |
| 20260507081959 | -17 | 18 | 0.0 | 8.0 | 0.00 | 0.00 | 0.00 | 1019.0 | |
| 20260507081455 | -17 | 343 | 3.2 | 4.8 | 0.00 | 0.00 | 0.00 | 1019.2 | |
| 20260507080953 | -17 | 66 | 3.2 | 6.4 | 0.00 | 0.00 | 0.00 | 1019.3 | |
| 20260507080448 | -17 | 149 | 3.2 | 4.8 | 0.00 | 0.00 | 0.00 | 1018.9 | |
| 20260507075944 | -17 | 72 | 3.2 | 6.4 | 0.00 | 0.00 | 0.00 | 1018.6 | |
| 20260507075441 | -17 | 82 | 1.6 | 8.0 | 0.00 | 0.00 | 0.00 | 1018.7 | |
| 20260507074937 | -17 | 76 | 1.6 | 4.8 | 0.00 | 0.00 | 0.00 | 1019.2 | |
| 20260507074434 | -17 | 145 | 0.0 | 3.2 | 0.00 | 0.00 | 0.00 | 1019.0 | |
| 20260507073932 | -17 | 53 | 0.0 | 4.8 | 0.00 | 0.00 | 0.00 | 1018.4 | |
| 20260507073428 | -17 | 54 | 4.8 | 11.3 | 0.00 | 0.00 | 0.00 | 1018.7 | |
| 20260507072925 | -17 | 82 | 1.6 | 8.0 | 0.00 | 0.00 | 0.00 | 1018.5 | |
| 20260507072423 | -17 | 216 | 0.0 | 6.4 | 0.00 | 0.00 | 0.00 | 1018.6 | |
| 20260507071920 | -17 | 42 | 3.2 | 8.0 | 0.00 | 0.00 | 0.00 | 1018.7 | |
| 20260507071417 | -17 | 132 | 0.0 | 4.8 | 0.00 | 0.00 | 0.00 | 1019.0 | |
| 20260507070913 | -17 | 36 | 0.0 | 6.4 | 0.00 | 0.00 | 0.00 | 1018.9 | |
| 20260507070411 | -17 | 57 | 3.2 | 3.2 | 0.00 | 0.00 | 0.00 | 1018.7 | |
| 20260507065907 | -17 | 10 | 0.0 | 6.4 | 0.00 | 0.00 | 0.00 | 1018.7 | |
| 20260507065404 | -17 | 346 | 4.8 | 6.4 | 0.00 | 0.00 | 0.00 | 1018.5 | |
| 20260507064901 | -17 | 42 | 1.6 | 9.7 | 0.00 | 0.00 | 0.00 | 1018.4 | |
| 20260507064359 | -17 | 212 | 0.0 | 4.8 | 0.00 | 0.00 | 0.00 | 1018.3 | |
| 20260507063857 | -17 | 156 | 0.0 | 3.2 | 0.00 | 0.00 | 0.00 | 1018.5 | |
| 20260507063354 | -17 | 147 | 0.0 | 3.2 | 0.00 | 0.00 | 0.00 | 1018.6 | |
| 20260507062851 | -17 | 171 | 1.6 | 3.2 | 0.00 | 0.00 | 0.00 | 1018.6 | |
| 20260507062347 | -17 | 266 | 0.0 | 4.8 | 0.00 | 0.00 | 0.00 | 1018.7 | |
| 20260507061845 | -17 | 49 | 4.8 | 6.4 | 0.00 | 0.00 | 0.00 | 1018.7 | |
| 20260507061343 | -17 | 117 | 0.0 | 4.8 | 0.00 | 0.00 | 0.00 | 1018.9 | |
| 20260507060841 | -17 | 12 | 3.2 | 6.4 | 0.00 | 0.00 | 0.00 | 1019.0 | |
| 20260507060338 | -17 | 150 | 0.0 | 4.8 | 0.00 | 0.00 | 0.00 | 1019.0 | |
| 20260507055835 | -17 | 135 | 3.2 | 4.8 | 0.00 | 0.00 | 0.00 | 1018.6 | |
| 20260507055330 | -17 | 44 | 3.2 | 4.8 | 0.00 | 0.00 | 0.00 | 1018.6 | |
| 20260507054827 | -17 | 7 | 1.6 | 4.8 | 0.00 | 0.00 | 0.00 | 1018.9 | |
| 20260507054323 | -17 | 167 | 0.0 | 14.5 | 0.00 | 0.00 | 0.00 | 1018.5 | |
| 20260507053820 | -17 | 58 | 1.6 | 4.8 | 0.00 | 0.00 | 0.00 | 1018.5 | |
| 20260507053318 | -17 | 147 | 1.6 | 11.3 | 0.00 | 0.00 | 0.00 | 1018.4 | |
| 20260507052817 | -17 | 75 | 4.8 | 9.7 | 0.00 | 0.00 | 0.00 | 1018.5 | |
| 20260507052313 | -17 | 242 | 1.6 | 6.4 | 0.00 | 0.00 | 0.00 | 1018.7 | |
| 20260507051811 | -17 | 97 | 4.8 | 8.0 | 0.00 | 0.00 | 0.00 | 1018.7 | |
| 20260507051308 | -17 | 68 | 3.2 | 8.0 | 0.00 | 0.00 | 0.00 | 1018.4 | |
| 20260507050804 | -17 | 88 | 0.0 | 9.7 | 0.00 | 0.00 | 0.00 | 1018.5 | |
| 20260507050301 | -17 | 91 | 4.8 | 8.0 | 0.00 | 0.00 | 0.00 | 1018.7 | |
| 20260507045758 | -17 | 101 | 1.6 | 8.0 | 0.00 | 0.00 | 0.00 | 1018.8 | |
| 20260507045254 | -17 | 102 | 3.2 | 6.4 | 0.00 | 0.00 | 0.00 | 1018.7 | |
| 20260507044751 | -17 | 118 | 1.6 | 4.8 | 0.00 | 0.00 | 0.00 | 1018.7 | |
| 20260507044248 | -17 | 301 | 0.0 | 8.0 | 0.00 | 0.00 | 0.00 | 1018.5 | |
| 20260507043744 | -17 | 66 | 3.2 | 9.7 | 0.00 | 0.00 | 0.00 | 1018.7 | |
| 20260507043241 | -17 | 95 | 0.0 | 4.8 | 0.00 | 0.00 | 0.00 | 1018.8 | |
| 20260507042737 | -17 | 26 | 3.2 | 9.7 | 0.00 | 0.00 | 0.00 | 1018.8 | |
| 20260507042232 | -17 | 77 | 3.2 | 6.4 | 0.00 | 0.00 | 0.00 | 1018.8 | |
| 20260507041730 | -17 | 80 | 0.0 | 9.7 | 0.00 | 0.00 | 0.00 | 1018.6 | |
| 20260507041226 | -17 | 79 | 3.2 | 14.5 | 0.00 | 0.00 | 0.00 | 1018.9 | |
| 20260507040724 | -17 | 320 | 4.8 | 11.3 | 0.00 | 0.00 | 0.00 | 1019.0 | |
| 20260507040220 | -17 | 326 | 3.2 | 8.0 | 0.00 | 0.00 | 0.00 | 1018.9 | |
| 20260507035716 | -17 | 101 | 1.6 | 6.4 | 0.00 | 0.00 | 0.00 | 1018.8 | |
| 20260507035211 | -17 | 229 | 0.0 | 4.8 | 0.00 | 0.00 | 0.00 | 1018.8 | |
| 20260507034709 | -17 | 66 | 0.0 | 4.8 | 0.00 | 0.00 | 0.00 | 1018.5 | |
| 20260507034206 | -17 | 37 | 3.2 | 9.7 | 0.00 | 0.00 | 0.00 | 1018.3 | |
| 20260507033704 | -17 | 63 | 6.4 | 12.9 | 0.00 | 0.00 | 0.00 | 1018.4 | |
| 20260507033201 | -17 | 15 | 6.4 | 11.3 | 0.00 | 0.00 | 0.00 | 1018.7 | |
| 20260507032659 | -17 | 124 | 3.2 | 8.0 | 0.00 | 0.00 | 0.00 | 1018.7 | |
| 20260507032154 | -17 | 112 | 1.6 | 11.3 | 0.00 | 0.00 | 0.00 | 1018.3 | |
| 20260507031651 | -17 | 348 | 0.0 | 16.1 | 0.00 | 0.00 | 0.00 | 1017.9 | |
| 20260507031148 | -17 | 34 | 3.2 | 6.4 | 0.00 | 0.00 | 0.00 | 1017.9 | |
| 20260507030645 | -17 | 12 | 3.2 | 11.3 | 0.00 | 0.00 | 0.00 | 1017.8 | |
| 20260507030143 | -17 | 11 | 4.8 | 11.3 | 0.00 | 0.00 | 0.00 | 1018.4 | |
| 20260507025639 | -17 | 26 | 6.4 | 8.0 | 0.00 | 0.00 | 0.00 | 1018.5 | |
| 20260507025136 | -17 | 6 | 3.2 | 8.0 | 0.00 | 0.00 | 0.00 | 1018.3 | |
| 20260507024634 | -17 | 82 | 4.8 | 9.7 | 0.00 | 0.00 | 0.00 | 1018.2 | |
| 20260507024131 | -17 | 6 | 4.8 | 6.4 | 0.00 | 0.00 | 0.00 | 1018.1 | |
| 20260507023627 | -17 | 46 | 1.6 | 8.0 | 0.00 | 0.00 | 0.00 | 1017.9 | |
| 20260507023124 | -17 | 62 | 0.0 | 6.4 | 0.00 | 0.00 | 0.00 | 1017.9 | |
| 20260507022621 | -17 | 319 | 0.0 | 4.8 | 0.00 | 0.00 | 0.00 | 1017.4 | |
| 20260507022116 | -17 | 58 | 0.0 | 4.8 | 0.00 | 0.00 | 0.00 | 1017.8 | |
| 20260507021613 | -17 | 24 | 0.0 | 3.2 | 0.00 | 0.00 | 0.00 | 1017.8 | |
| 20260507021109 | -17 | 7 | 4.8 | 8.0 | 0.00 | 0.00 | 0.00 | 1017.6 | |
| 20260507020608 | -17 | 312 | 4.8 | 8.0 | 0.00 | 0.00 | 0.00 | 1016.8 | |
| 20260507020103 | -17 | 76 | 0.0 | 4.8 | 0.00 | 0.00 | 0.00 | 1016.8 | |
| 20260507015602 | -17 | 53 | 0.0 | 4.8 | 0.00 | 0.00 | 0.00 | 1016.8 | |
| 20260507015059 | -17 | 43 | 3.2 | 12.9 | 0.00 | 0.00 | 0.00 | 1016.8 | |
| 20260507014555 | -17 | 55 | 0.0 | 6.4 | 0.00 | 0.00 | 0.00 | 1016.8 | |
| 20260507014051 | -17 | 89 | 3.2 | 8.0 | 0.00 | 0.00 | 0.00 | 1016.8 | |
| 20260507013548 | -17 | 13 | 3.2 | 4.8 | 0.00 | 0.00 | 0.00 | 1016.8 | |
| 20260507013045 | -17 | 0 | 4.8 | 9.7 | 0.00 | 0.00 | 0.00 | 1016.1 | |
| 20260507012543 | -17 | 147 | 0.0 | 3.2 | 0.00 | 0.00 | 0.00 | 1016.1 | |
| 20260507012038 | -17 | 26 | 0.0 | 8.0 | 0.00 | 0.00 | 0.00 | 1016.1 | |
| 20260507011536 | -17 | 15 | 3.2 | 6.4 | 0.00 | 0.00 | 0.00 | 1016.1 | |
| 20260507011032 | -17 | 76 | 0.0 | 8.0 | 0.00 | 0.00 | 0.00 | 1016.1 | |
| 20260507010526 | -17 | 119 | 0.0 | 8.0 | 0.00 | 0.00 | 0.00 | 1016.1 | |
| 20260507010023 | -17 | 39 | 0.0 | 4.8 | 0.00 | 0.00 | 0.00 | 1016.1 | |
| 20260507005521 | -17 | 235 | 0.0 | 8.0 | 0.00 | 0.00 | 0.00 | 1016.1 | |
| 20260507005017 | -17 | 288 | 1.6 | 6.4 | 0.00 | 0.00 | 0.00 | 1016.0 | |
| 20260507004514 | -17 | 345 | 3.2 | 11.3 | 0.00 | 0.00 | 0.00 | 1016.1 | |
| 20260507004012 | -17 | 15 | 0.0 | 4.8 | 0.00 | 0.00 | 0.00 | 1016.1 | |
| 20260507003507 | -17 | 62 | 0.0 | 14.5 | 0.00 | 0.00 | 0.00 | 1016.1 | |
| 20260507003002 | -17 | 13 | 0.0 | 4.8 | 0.00 | 0.00 | 0.00 | 1016.1 | |
| 20260507002459 | -17 | 15 | 4.8 | 9.7 | 0.00 | 0.00 | 0.00 | 1016.0 | |
| 20260507001955 | -17 | 79 | 0.0 | 4.8 | 0.00 | 0.00 | 0.00 | 1016.0 | |
| 20260507001452 | -17 | 350 | 0.0 | 6.4 | 0.00 | 0.00 | 0.00 | 1016.0 | |
| 20260507000949 | -17 | 134 | 1.6 | 12.9 | 0.00 | 0.00 | 0.00 | 1016.0 | |
| 20260507000445 | -17 | 68 | 1.6 | 4.8 | 0.00 | 0.00 | 0.00 | 1015.9 | |
| 20260506235941 | -17 | 196 | 0.0 | 4.8 | 0.00 | 0.00 | 0.00 | 1015.9 | |
| 20260506235438 | -17 | 108 | 0.0 | 6.4 | 0.00 | 0.00 | 0.00 | 1015.9 | |
| 20260506234933 | -17 | 250 | 0.0 | 4.8 | 0.00 | 0.00 | 0.00 | 1015.9 | |
| 20260506234432 | -17 | 269 | 0.0 | 6.4 | 0.00 | 0.00 | 0.00 | 1015.9 | |
| 20260506233929 | -17 | 353 | 6.4 | 9.7 | 0.00 | 0.00 | 0.00 | 1015.5 | |
| 20260506233425 | -17 | 289 | 0.0 | 8.0 | 0.00 | 0.00 | 0.00 | 1015.8 | |
| 20260506232922 | -17 | 308 | 0.0 | 11.3 | 0.00 | 0.00 | 0.00 | 1015.7 | |
| 20260506232418 | -17 | 316 | 1.6 | 6.4 | 0.00 | 0.00 | 0.00 | 1015.8 | |
| 20260506231914 | -17 | 319 | 3.2 | 8.0 | 0.00 | 0.00 | 0.00 | 1016.1 | |
| 20260506231412 | -17 | 20 | 3.2 | 8.0 | 0.00 | 0.00 | 0.00 | 1016.1 | |
| 20260506230909 | -17 | 246 | 0.0 | 8.0 | 0.00 | 0.00 | 0.00 | 1015.7 | |
| 20260506230405 | -17 | 111 | 0.0 | 8.0 | 0.00 | 0.00 | 0.00 | 1015.7 | |
| 20260506225902 | -17 | 357 | 4.8 | 8.0 | 0.00 | 0.00 | 0.00 | 1015.7 | |
| 20260506225359 | -17 | 128 | 1.6 | 8.0 | 0.00 | 0.00 | 0.00 | 1015.9 | |
| 20260506224856 | -17 | 209 | 0.0 | 6.4 | 0.00 | 0.00 | 0.00 | 1015.9 | |
| 20260506224354 | -17 | 77 | 3.2 | 4.8 | 0.00 | 0.00 | 0.00 | 1015.6 | |
| 20260506223850 | -17 | 24 | 1.6 | 8.0 | 0.00 | 0.00 | 0.00 | 1015.8 | |
| 20260506223345 | -17 | 355 | 3.2 | 9.7 | 0.00 | 0.00 | 0.00 | 1015.5 | |
| 20260506222842 | -17 | 344 | 1.6 | 9.7 | 0.00 | 0.00 | 0.00 | 1015.3 | |
| 20260506222338 | -17 | 31 | 0.0 | 8.0 | 0.00 | 0.00 | 0.00 | 1015.6 | |
| 20260506221836 | -17 | 326 | 1.6 | 12.9 | 0.00 | 0.00 | 0.00 | 1015.5 | |
| 20260506221333 | -17 | 71 | 3.2 | 9.7 | 0.00 | 0.00 | 0.00 | 1015.4 | |
| 20260506220831 | -17 | 289 | 6.4 | 8.0 | 0.00 | 0.00 | 0.00 | 1015.8 | |
| 20260506220326 | -17 | 0 | 6.4 | 11.3 | 0.00 | 0.00 | 0.00 | 1015.8 | |
| 20260506215823 | -17 | 320 | 4.8 | 9.7 | 0.00 | 0.00 | 0.00 | 1015.5 | |
| 20260506215319 | -17 | 228 | 3.2 | 14.5 | 0.00 | 0.00 | 0.00 | 1015.6 | |
| 20260506214815 | -17 | 338 | 4.8 | 14.5 | 0.00 | 0.00 | 0.00 | 1015.6 | |
| 20260506214312 | -17 | 8 | 3.2 | 8.0 | 0.00 | 0.00 | 0.00 | 1015.6 | |
| 20260506213810 | -17 | 11 | 3.2 | 6.4 | 0.00 | 0.00 | 0.00 | 1015.5 | |
| 20260506213306 | -17 | 0 | 9.7 | 14.5 | 0.00 | 0.00 | 0.00 | 1015.6 | |
| 20260506212804 | -17 | 66 | 3.2 | 14.5 | 0.00 | 0.00 | 0.00 | 1015.7 | |
| 20260506212259 | -17 | 71 | 1.6 | 4.8 | 0.00 | 0.00 | 0.00 | 1015.8 | |
| 20260506211754 | -17 | 319 | 1.6 | 12.9 | 0.00 | 0.00 | 0.00 | 1015.8 | |
| 20260506211251 | -17 | 316 | 4.8 | 12.9 | 0.00 | 0.00 | 0.00 | 1015.7 | |
| 20260506210748 | -17 | 114 | 3.2 | 14.5 | 0.00 | 0.00 | 0.00 | 1015.8 | |
| 20260506210245 | -17 | 30 | 4.8 | 6.4 | 0.00 | 0.00 | 0.00 | 1015.8 | |
| 20260506205742 | -17 | 246 | 0.0 | 9.7 | 0.00 | 0.00 | 0.00 | 1015.8 | |
| 20260506205238 | -17 | 323 | 4.8 | 8.0 | 0.00 | 0.00 | 0.00 | 1015.8 | |
| 20260506204735 | -17 | 242 | 0.0 | 8.0 | 0.00 | 0.00 | 0.00 | 1015.7 | |
| 20260506204233 | -17 | 275 | 3.2 | 8.0 | 0.00 | 0.00 | 0.00 | 1016.0 | |
| 20260506203731 | -17 | 67 | 6.4 | 14.5 | 0.00 | 0.00 | 0.00 | 1016.0 | |
| 20260506203227 | -17 | 3 | 1.6 | 9.7 | 0.00 | 0.00 | 0.00 | 1015.9 | |
| 20260506202725 | -17 | 346 | 4.8 | 8.0 | 0.00 | 0.00 | 0.00 | 1015.9 | |
| 20260506202221 | -17 | 283 | 3.2 | 14.5 | 0.00 | 0.00 | 0.00 | 1015.7 | |
| 20260506201718 | -17 | 354 | 4.8 | 11.3 | 0.00 | 0.00 | 0.00 | 1015.8 | |
| 20260506201215 | -17 | 63 | 3.2 | 20.9 | 0.00 | 0.00 | 0.00 | 1015.7 | |
| 20260506200712 | -17 | 10 | 4.8 | 14.5 | 0.00 | 0.00 | 0.00 | 1015.8 | |
| 20260506200209 | -17 | 135 | 1.6 | 14.5 | 0.00 | 0.00 | 0.00 | 1015.7 | |
| 20260506195705 | -17 | 55 | 8.0 | 17.7 | 0.00 | 0.00 | 0.00 | 1015.5 | |
| 20260506195201 | -17 | 7 | 8.0 | 17.7 | 0.00 | 0.00 | 0.00 | 1015.5 | |
| 20260506194659 | -17 | 11 | 4.8 | 8.0 | 0.00 | 0.00 | 0.00 | 1015.5 | |
| 20260506194155 | -17 | 325 | 1.6 | 11.3 | 0.00 | 0.00 | 0.00 | 1015.5 | |
| 20260506193653 | -17 | 117 | 3.2 | 11.3 | 0.00 | 0.00 | 0.00 | 1015.5 | |
| 20260506193149 | -17 | 8 | 4.8 | 16.1 | 0.00 | 0.00 | 0.00 | 1015.5 | |
| 20260506192646 | -17 | 44 | 3.2 | 9.7 | 0.00 | 0.00 | 0.00 | 1015.8 | |
| 20260506192142 | -17 | 239 | 6.4 | 9.7 | 0.00 | 0.00 | 0.00 | 1015.9 | |
| 20260506191640 | -17 | 3 | 0.0 | 6.4 | 0.00 | 0.00 | 0.00 | 1015.9 | |
| 20260506191135 | -17 | 312 | 0.0 | 9.7 | 0.00 | 0.00 | 0.00 | 1015.9 | |
| 20260506190633 | -17 | 89 | 0.0 | 11.3 | 0.00 | 0.00 | 0.00 | 1015.9 | |
| 20260506190130 | -17 | 13 | 4.8 | 8.0 | 0.00 | 0.00 | 0.00 | 1015.9 | |
| 20260506185627 | -17 | 300 | 3.2 | 11.3 | 0.00 | 0.00 | 0.00 | 1015.5 | |
| 20260506185123 | -17 | 6 | 1.6 | 6.4 | 0.00 | 0.00 | 0.00 | 1015.5 | |
| 20260506184620 | -17 | 338 | 0.0 | 6.4 | 0.00 | 0.00 | 0.00 | 1015.5 | |
| 20260506184118 | -17 | 341 | 3.2 | 17.7 | 0.00 | 0.00 | 0.00 | 1015.6 | |
| 20260506183614 | -17 | 318 | 3.2 | 16.1 | 0.00 | 0.00 | 0.00 | 1015.5 | |
| 20260506183110 | -17 | 272 | 1.6 | 6.4 | 0.00 | 0.00 | 0.00 | 1015.4 | |
| 20260506182608 | -17 | 77 | 0.0 | 4.8 | 0.00 | 0.00 | 0.00 | 1015.4 | |
| 20260506182105 | -17 | 275 | 4.8 | 4.8 | 0.00 | 0.00 | 0.00 | 1015.3 | |
| 20260506181603 | -17 | 310 | 4.8 | 8.0 | 0.00 | 0.00 | 0.00 | 1015.4 | |
| 20260506181059 | -17 | 3 | 4.8 | 16.1 | 0.00 | 0.00 | 0.00 | 1017.1 | |
| 20260506180556 | -17 | 183 | 1.6 | 8.0 | 0.00 | 0.00 | 0.00 | 1015.3 | |
| 20260506180053 | -17 | 319 | 1.6 | 11.3 | 0.00 | 0.00 | 0.00 | 1015.2 | |
| 20260506175549 | -17 | 40 | 3.2 | 8.0 | 0.00 | 0.00 | 0.00 | 1015.1 | |
| 20260506175045 | -17 | 350 | 3.2 | 11.3 | 0.00 | 0.00 | 0.00 | 1015.1 | |
| 20260506174544 | -17 | 209 | 0.0 | 6.4 | 0.00 | 0.00 | 0.00 | 1015.1 | |
| 20260506174039 | -17 | 306 | 0.0 | 6.4 | 0.00 | 0.00 | 0.00 | 1014.9 | |
| 20260506173538 | -17 | 304 | 3.2 | 8.0 | 0.00 | 0.00 | 0.00 | 1014.9 | |
| 20260506173034 | -17 | 22 | 0.0 | 6.4 | 0.00 | 0.00 | 0.00 | 1014.9 | |
| 20260506172532 | -17 | 235 | 0.0 | 4.8 | 0.00 | 0.00 | 0.00 | 1015.0 | |
| 20260506172028 | -17 | 348 | 3.2 | 6.4 | 0.00 | 0.00 | 0.00 | 1015.2 | |
| 20260506171525 | -17 | 144 | 4.8 | 8.0 | 0.00 | 0.00 | 0.00 | 1015.1 | |
| 20260506171023 | -17 | 336 | 4.8 | 8.0 | 0.00 | 0.00 | 0.00 | 1014.7 | |
| 20260506170520 | -17 | 178 | 4.8 | 8.0 | 0.00 | 0.00 | 0.00 | 1014.8 | |
| 20260506170012 | -17 | 185 | 3.2 | 8.0 | 0.00 | 0.00 | 0.00 | 1015.0 | |
| 20260506165510 | -17 | 40 | 6.4 | 8.0 | 0.00 | 0.00 | 0.00 | 1014.9 | |
| 20260506165006 | -17 | 0 | 0.0 | 9.7 | 0.00 | 0.00 | 0.00 | 1015.1 | |
| 20260506164503 | -17 | 343 | 4.8 | 8.0 | 0.00 | 0.00 | 0.00 | 1015.1 | |
| 20260506164001 | -17 | 31 | 0.0 | 4.8 | 0.00 | 0.00 | 0.00 | 1015.5 | |
| 20260506163456 | -17 | 13 | 4.8 | 11.3 | 0.00 | 0.00 | 0.00 | 1015.5 | |
| 20260506162950 | -17 | 123 | 3.2 | 12.9 | 0.00 | 0.00 | 0.00 | 1015.7 | |
| 20260506162449 | -17 | 351 | 1.6 | 9.7 | 0.00 | 0.00 | 0.00 | 1015.7 | |
| 20260506161946 | -17 | 322 | 3.2 | 8.0 | 0.00 | 0.00 | 0.00 | 1015.1 | |
| 20260506161444 | -17 | 292 | 1.6 | 8.0 | 0.00 | 0.00 | 0.00 | 1015.6 | |
| 20260506160941 | -17 | 72 | 0.0 | 12.9 | 0.00 | 0.00 | 0.00 | 1016.3 | |
| 20260506160438 | -17 | 21 | 3.2 | 14.5 | 0.00 | 0.00 | 0.00 | 1016.4 | |
| 20260506155935 | -17 | 314 | 1.6 | 17.7 | 0.00 | 0.00 | 0.00 | 1016.7 | |
| 20260506155432 | -17 | 117 | 1.6 | 17.7 | 0.00 | 0.00 | 0.00 | 1016.7 | |
| 20260506153554 | -17 | 50 | 8.0 | 11.3 | 0.00 | 0.00 | 0.00 | 1016.7 | |
| 20260506153052 | -17 | 335 | 4.8 | 12.9 | 0.00 | 0.00 | 0.00 | 1016.4 | |
| 20260506152548 | -17 | 66 | 4.8 | 24.1 | 0.00 | 0.00 | 0.00 | 1015.9 | |
| 20260506152046 | -17 | 296 | 4.8 | 14.5 | 0.00 | 0.00 | 0.00 | 1016.0 | |
| 20260506151544 | -17 | 356 | 11.3 | 25.7 | 0.00 | 0.00 | 0.00 | 1016.0 | |
| 20260506151041 | -17 | 351 | 4.8 | 14.5 | 0.00 | 0.00 | 0.00 | 1015.1 | |
| 20260506150537 | -17 | 23 | 3.2 | 17.7 | 0.00 | 0.00 | 0.00 | 1015.1 | |
| 20260506150035 | -17 | 8 | 4.8 | 14.5 | 0.00 | 0.00 | 0.00 | 1015.0 | |
| 20260506145531 | -17 | 83 | 3.2 | 11.3 | 0.00 | 0.00 | 0.00 | 1015.0 | |
| 20260506145029 | -17 | 76 | 4.8 | 22.5 | 0.00 | 0.00 | 0.00 | 1015.0 | |
| 20260506144525 | -17 | 29 | 9.7 | 20.9 | 0.00 | 0.00 | 0.00 | 1014.5 | |
| 20260506144023 | -17 | 54 | 8.0 | 17.7 | 0.00 | 0.00 | 0.00 | 1014.5 | |
| 20260506143520 | -17 | 188 | 0.0 | 11.3 | 0.00 | 0.00 | 0.00 | 1014.6 | |
| 20260506143019 | -17 | 33 | 3.2 | 11.3 | 0.00 | 0.00 | 0.00 | 1014.5 | |
| 20260506142516 | -17 | 355 | 8.0 | 12.9 | 0.00 | 0.00 | 0.00 | 1013.5 | |
| 20260506142014 | -17 | 73 | 0.0 | 9.7 | 0.00 | 0.00 | 0.00 | 1013.5 | |
| 20260506141511 | -17 | 337 | 3.2 | 11.3 | 0.00 | 0.00 | 0.00 | 1013.5 | |
| 20260506141010 | -17 | 333 | 4.8 | 6.4 | 0.00 | 0.00 | 0.00 | 1013.5 | |
| 20260506140507 | -17 | 357 | 4.8 | 9.7 | 0.00 | 0.00 | 0.00 | 1013.5 | |
| 20260506140004 | -17 | 103 | 3.2 | 9.7 | 0.00 | 0.00 | 0.00 | 1013.5 | |
| 20260506135501 | -17 | 336 | 4.8 | 12.9 | 0.00 | 0.00 | 0.00 | 1013.5 | |
| 20260506134956 | -17 | 322 | 0.0 | 4.8 | 0.00 | 0.00 | 0.00 | 1012.4 | |
| 20260506134453 | -17 | 299 | 0.0 | 3.2 | 0.00 | 0.00 | 0.00 | 1012.4 | |
| 20260506133949 | -17 | 147 | 0.0 | 1.6 | 0.00 | 0.00 | 0.00 | 1012.4 | |
| 20260506133446 | -17 | 130 | 0.0 | 1.6 | 0.00 | 0.00 | 0.00 | 1012.4 | |
| 20260506132943 | -17 | 186 | 1.6 | 3.2 | 0.00 | 0.00 | 0.00 | 1012.4 | |
| 20260506132440 | -17 | 34 | 0.0 | 3.2 | 0.00 | 0.00 | 0.00 | 1012.4 | |
| 20260506131938 | -17 | 147 | 0.0 | 3.2 | 0.00 | 0.00 | 0.00 | 1012.4 | |
| 20260506131434 | -17 | 113 | 0.0 | 1.6 | 0.00 | 0.00 | 0.00 | 1012.4 | |
| 20260506130931 | -17 | 330 | 1.6 | 3.2 | 0.00 | 0.00 | 0.00 | 1012.4 | |
| 20260506130428 | -17 | 189 | 3.2 | 6.4 | 0.00 | 0.00 | 0.00 | 1012.4 | |
| 20260506125926 | -17 | 135 | 3.2 | 4.8 | 0.00 | 0.00 | 0.00 | 1012.4 | |
| 20260506125424 | -17 | 164 | 0.0 | 1.6 | 0.00 | 0.00 | 0.00 | 1012.5 | |
| 20260506124922 | -17 | 62 | 0.0 | 3.2 | 0.00 | 0.00 | 0.00 | 1012.4 | |
| 20260506124419 | -17 | 113 | 0.0 | 1.6 | 0.00 | 0.00 | 0.00 | 1012.3 | |
| 20260506123917 | -17 | 142 | 0.0 | 1.6 | 0.00 | 0.00 | 0.00 | 1012.1 | |
| 20260506123414 | -17 | 117 | 0.0 | 0.0 | 0.00 | 0.00 | 0.00 | 1012.2 | |
| 20260506122912 | -17 | 170 | 0.0 | 1.6 | 0.00 | 0.00 | 0.00 | 1012.1 | |
| 20260506122408 | -17 | 135 | 0.0 | 0.0 | 0.00 | 0.00 | 0.00 | 1012.2 | |
| 20260506121907 | -17 | 135 | 0.0 | 0.0 | 0.00 | 0.00 | 0.00 | 1012.3 | |
| 20260506121403 | -17 | 147 | 0.0 | 0.0 | 0.00 | 0.00 | 0.00 | 1012.2 | |
| 20260506120900 | -17 | 322 | 0.0 | 1.6 | 0.00 | 0.00 | 0.00 | 1012.1 | |
| 20260506120358 | -17 | 217 | 0.0 | 1.6 | 0.00 | 0.00 | 0.00 | 1012.1 | |
| 20260506115855 | -17 | 202 | 0.0 | 1.6 | 0.00 | 0.00 | 0.00 | 1012.0 | |
| 20260506115353 | -17 | 104 | 0.0 | 1.6 | 0.00 | 0.00 | 0.00 | 1012.0 | |
| 20260506114851 | -17 | 124 | 0.0 | 3.2 | 0.00 | 0.00 | 0.00 | 1012.0 | |
| 20260506114348 | -17 | 142 | 0.0 | 1.6 | 0.00 | 0.00 | 0.00 | 1012.0 | |
| 20260506113847 | -17 | 117 | 0.0 | 1.6 | 0.00 | 0.00 | 0.00 | 1012.0 | |
| 20260506113344 | -17 | 142 | 0.0 | 1.6 | 0.00 | 0.00 | 0.00 | 1011.9 | |
| 20260506112840 | -17 | 117 | 0.0 | 1.6 | 0.00 | 0.00 | 0.00 | 1012.2 | |
| 20260506112338 | -17 | 202 | 0.0 | 0.0 | 0.00 | 0.00 | 0.00 | 1012.0 | |
| 20260506111835 | -17 | 202 | 0.0 | 1.6 | 0.00 | 0.00 | 0.00 | 1012.1 | |
| 20260506111333 | -17 | 217 | 0.0 | 1.6 | 0.00 | 0.00 | 0.00 | 1012.0 | |
| 20260506110831 | -17 | 218 | 0.0 | 1.6 | 0.00 | 0.00 | 0.00 | 1012.0 | |
| 20260506110328 | -17 | 124 | 0.0 | 3.2 | 0.00 | 0.00 | 0.00 | 1012.0 | |
| 20260506105825 | -17 | 142 | 0.0 | 1.6 | 0.00 | 0.00 | 0.00 | 1012.0 | |
| 20260506105321 | -17 | 218 | 0.0 | 3.2 | 0.00 | 0.00 | 0.00 | 1012.0 | |
| 20260506104818 | -17 | 199 | 0.0 | 3.2 | 0.00 | 0.00 | 0.00 | 1012.0 | |
| 20260506104316 | -17 | 235 | 0.0 | 1.6 | 0.00 | 0.00 | 0.00 | 1012.0 | |
| 20260506103813 | -17 | 205 | 0.0 | 1.6 | 0.00 | 0.00 | 0.00 | 1011.9 | |
| 20260506103311 | -17 | 240 | 0.0 | 1.6 | 0.00 | 0.00 | 0.00 | 1011.8 | |
| 20260506102808 | -17 | 203 | 0.0 | 3.2 | 0.00 | 0.00 | 0.00 | 1011.7 | |
| 20260506102306 | -17 | 224 | 0.0 | 0.0 | 0.00 | 0.00 | 0.00 | 1011.7 | |
| 20260506101803 | -17 | 185 | 0.0 | 1.6 | 0.00 | 0.00 | 0.00 | 1011.6 | |
| 20260506101259 | -17 | 190 | 1.6 | 1.6 | 0.00 | 0.00 | 0.00 | 1011.5 | |
| 20260506100757 | -17 | 203 | 0.0 | 3.2 | 0.00 | 0.00 | 0.00 | 1011.6 | |
| 20260506100255 | -17 | 246 | 0.0 | 6.4 | 0.00 | 0.00 | 0.00 | 1011.5 | |
| 20260506095753 | -17 | 173 | 0.0 | 1.6 | 0.00 | 0.00 | 0.00 | 1011.5 | |
| 20260506095250 | -17 | 181 | 0.0 | 4.8 | 0.00 | 0.00 | 0.00 | 1011.5 | |
| 20260506094746 | -17 | 230 | 0.0 | 4.8 | 0.00 | 0.00 | 0.00 | 1011.1 | |
| 20260506094245 | -17 | 230 | 0.0 | 1.6 | 0.00 | 0.00 | 0.00 | 1011.1 | |
| 20260506093743 | -17 | 178 | 0.0 | 4.8 | 0.00 | 0.00 | 0.00 | 1011.1 | |
| 20260506093240 | -17 | 205 | 0.0 | 1.6 | 0.00 | 0.00 | 0.00 | 1011.1 | |
| 20260506092737 | -17 | 174 | 0.0 | 4.8 | 0.00 | 0.00 | 0.00 | 1011.1 | |
| 20260506092235 | -17 | 134 | 0.0 | 3.2 | 0.00 | 0.00 | 0.00 | 1011.0 | |
| 20260506091732 | -17 | 229 | 0.0 | 1.6 | 0.00 | 0.00 | 0.00 | 1011.0 | |
| 20260506091230 | -17 | 129 | 0.0 | 3.2 | 0.00 | 0.00 | 0.00 | 1011.0 | |
| 20260506090727 | -17 | 187 | 0.0 | 4.8 | 0.00 | 0.00 | 0.00 | ||
| 20260506090224 | -17 | 164 | 0.0 | 1.6 | 0.00 | 0.00 | 0.00 | ||
| 20260506085721 | -17 | 50 | 0.0 | 1.6 | 0.00 | 0.00 | 0.00 | ||
| 20260506085217 | -17 | 185 | 0.0 | 3.2 | 0.00 | 0.00 | 0.00 | ||
| 20260506084714 | -17 | 181 | 1.6 | 3.2 | 0.00 | 0.00 | 0.00 |